Weather at Stefanovikion Air Base [CLOSED]

Public forecast

Using degrees Celsius for public forecast. Weather courtesy of forecast.io.

Closest aviation weather report (METAR) to Stefanovikion Air Base

Closest report is Nea Anchialos National Airport, 15.6 nm (28.9 km) S. Retrieved 2022/01/19 21:50 UTC (1 hour ago):

LGBL 192150Z 23005KT CAVOK M03/M05 Q1030 BLU

Closest aviation forecast (TAF) to Stefanovikion Air Base

Forecast is more than 12 hours old.

Closest forecast is Skiathos Island National Airport, 38.6 nm (71.5 km) ESE. Retrieved 2012/09/27 00:18 UTC (9 years ago):

TAF LGSK 272300Z 2800/2909 01010KT 9999 FEW020